Location: Newark
(54.4333°N, 18.5500°E)
Time: 11:30:39
(UTC+00:00)

Envisat - Pass Details

Date: 09 December 2019
Orbit: 764 x 766 km, 98.1° (Epoch: 20 January)

Event Time Altitude Azimuth Distance (km) Brightness Sun altitude
Rises 05:13:29 0° 18° (NNE) 3,249 6.2 -13.4°
Reaches altitude 10° 05:15:54 10° 25° (NNE) 2,317 5.5 -13.1°
Maximum altitude 05:20:48 45° 98° (E) 1,044 4.3 -12.4°
Drops below altitude 10° 05:25:39 10° 171° (S) 2,300 5.9 -11.8°
Sets 05:28:02 0° 177° (S) 3,221 6.6 -11.5°
